GW5798 Weather Reports


Display with metric or nautical units.
time (UTC)temp
F
wind
direction
speed
MPH
gust
MPH
rain 1hr
in
rain 24hr
in
rain mn
in
humidity
%
barometer
mb
20260504050123 64 0.0 0.0 0.00 0.00 0.00 68 1018.8
20260504045033 64 0.0 0.0 0.00 0.00 0.00 68 1018.8
20260504044023 64 0.0 0.0 0.00 0.00 0.00 68 1018.9
20260504043114 64 0.0 0.0 0.00 0.00 0.00 68 1019.0
20260504042104 64 0.0 0.0 0.00 0.00 0.00 67 1018.9
20260504041054 65 0.0 0.0 0.00 0.00 0.00 66 1019.1
20260504040044 65 129 0.0 1.0 0.00 0.00 0.00 64 1019.1
20260504035034 66 0.0 1.0 0.00 0.00 0.00 62 1018.9
20260504034024 66 250 0.0 2.0 0.00 0.00 0.00 61 1019.0
20260504033135 67 164 1.0 2.0 0.00 0.00 0.00 60 1019.0
20260504032105 67 125 0.0 2.0 0.00 0.00 0.00 60 1018.9
20260504031055 68 158 0.0 2.0 0.00 0.00 0.00 59 1018.7
20260504030045 68 163 1.0 4.0 0.00 0.00 0.00 57 1018.9
20260504025055 69 186 1.0 6.0 0.00 0.00 0.00 56 1018.7
20260504024045 69 99 1.0 2.0 0.00 0.00 0.00 56 1018.6
20260504023115 69 116 0.0 2.0 0.00 0.00 0.00 55 1018.6
20260504022106 69 140 0.0 1.0 0.00 0.00 0.00 54 1018.6
20260504021056 70 172 1.0 4.0 0.00 0.00 0.00 52 1018.3
20260504020045 71 224 0.0 3.0 0.00 0.00 0.00 51 1018.3
20260504015035 71 154 1.0 7.0 0.00 0.00 0.00 49 1018.2
20260504014045 72 320 1.0 6.0 0.00 0.00 0.00 49 1018.2
20260504013136 72 351 2.0 6.0 0.00 0.00 0.00 48 1018.2
20260504012126 72 186 1.0 4.0 0.00 0.00 0.00 48 1018.1
20260504011056 73 165 1.0 6.0 0.00 0.00 0.00 48 1018.1
20260504010046 73 153 2.0 4.0 0.00 0.00 0.00 46 1018.2
20260504005036 74 188 1.0 3.0 0.00 0.00 0.00 46 1018.0
20260504004026 74 124 1.0 7.0 0.00 0.00 0.00 45 1018.1
20260504003016 74 191 1.0 6.0 0.00 0.00 0.00 45 1018.2
20260504002107 75 150 2.0 8.0 0.00 0.00 0.00 44 1018.1
20260504001057 76 167 2.0 8.0 0.00 0.00 0.00 42 1018.1
20260504000047 77 337 0.0 2.0 0.00 0.00 0.00 40 1018.0
20260503235037 77 176 1.0 4.0 0.00 0.00 0.00 39 1017.9
20260503234027 77 146 1.0 4.0 0.00 0.00 0.00 37 1018.0
20260503233017 78 149 0.0 4.0 0.00 0.00 0.00 36 1018.2
20260503232108 78 147 2.0 6.0 0.00 0.00 0.00 35 1018.3
20260503231058 78 272 1.0 4.0 0.00 0.00 0.00 35 1018.4
20260503230108 79 146 1.0 7.0 0.00 0.00 0.00 34 1018.4
20260503225038 79 313 1.0 2.0 0.00 0.00 0.00 34 1018.4
20260503224028 79 100 2.0 4.0 0.00 0.00 0.00 34 1018.5
20260503223017 80 220 1.0 3.0 0.00 0.00 0.00 35 1018.7
20260503222108 79 160 2.0 4.0 0.00 0.00 0.00 34 1018.9
20260503221058 80 192 1.0 3.0 0.00 0.00 0.00 34 1019.0
20260503220048 80 168 2.0 4.0 0.00 0.00 0.00 33 1019.0
20260503215038 80 355 1.0 4.0 0.00 0.00 0.00 35 1019.1
20260503214028 80 101 1.0 2.0 0.00 0.00 0.00 33 1019.0
20260503213018 82 112 0.0 4.0 0.00 0.00 0.00 33 1019.4
20260503212109 82 225 1.0 4.0 0.00 0.00 0.00 33 1019.6
20260503211059 81 201 1.0 6.0 0.00 0.00 0.00 33 1019.6
20260503210049 81 285 2.0 4.0 0.00 0.00 0.00 34 1019.7
20260503205039 82 41 2.0 3.0 0.00 0.00 0.00 35 1019.9
20260503204029 81 103 1.0 2.0 0.00 0.00 0.00 34 1020.1
20260503203019 82 96 1.0 2.0 0.00 0.00 0.00 34 1020.3
20260503202110 82 223 1.0 3.0 0.00 0.00 0.00 34 1020.3
20260503201100 82 221 2.0 4.0 0.00 0.00 0.00 34 1020.5
20260503200050 81 185 0.0 2.0 0.00 0.00 0.00 35 1020.7
20260503195040 82 90 1.0 3.0 0.00 0.00 0.00 36 1020.9
20260503194030 81 239 1.0 4.0 0.00 0.00 0.00 34 1021.0
20260503193020 81 146 1.0 3.0 0.00 0.00 0.00 35 1021.2
20260503192151 82 81 1.0 4.0 0.00 0.00 0.00 35 1021.3
20260503191101 81 105 1.0 3.0 0.00 0.00 0.00 37 1021.4
20260503190051 81 150 1.0 6.0 0.00 0.00 0.00 36 1021.7
20260503185041 81 267 1.0 3.0 0.00 0.00 0.00 35 1021.8
20260503184050 80 40 1.0 4.0 0.00 0.00 0.00 37 1021.9
20260503183021 81 286 2.0 4.0 0.00 0.00 0.00 37 1021.9
20260503182131 81 289 0.0 2.0 0.00 0.00 0.00 35 1022.2
20260503181101 80 289 1.0 4.0 0.00 0.00 0.00 37 1022.3
20260503180051 80 107 1.0 3.0 0.00 0.00 0.00 35 1022.7
20260503175041 80 172 0.0 2.0 0.00 0.00 0.00 36 1022.7
20260503174031 81 206 1.0 3.0 0.00 0.00 0.00 38 1023.0
20260503173021 79 195 1.0 3.0 0.00 0.00 0.00 39 1023.2
20260503172132 79 199 2.0 4.0 0.00 0.00 0.00 39 1023.1
20260503171122 79 48 0.0 1.0 0.00 0.00 0.00 38 1023.5
20260503170112 79 157 1.0 3.0 0.00 0.00 0.00 39 1023.6
20260503160113 78 65 0.0 1.0 0.00 0.00 0.00 44 1023.6
20260503131105 65 0.0 0.0 0.00 0.00 0.00 97 1022.7
20260503100117 56 0.0 0.0 0.00 0.00 0.00 97 1021.6
20260503090118 56 0.0 0.0 0.00 0.00 0.00 96 1021.0
20260503081109 57 0.0 0.0 0.00 0.00 0.00 95 1021.4
20260503072019 57 0.0 0.0 0.00 0.00 0.00 94 1021.4
20260503071110 57 0.0 0.0 0.00 0.00 0.00 94 1021.5